Weather in Dresden

Germany     51°02′58″N   13°44′16″E
temp.,
°C
wind,
m/s
gust,
m/s
humid.,
%
clouds,
%
prec.,
mm/h
press.,
hPa
HPBL,
m
25 february, thu
thu2501:00+10s23710 0.0 103138
04:00+9s23690 0.0 103039
07:00+9sse33670 0.0 102946
10:00+13sse24570 0.0 1029131
13:00+18sw25430 0.0 1028736
16:00+17w26520 0.0 1027406
19:00+12sw37580 0.0 1028169
22:00+11sw37630 0.0 1028158
26 february, fri
fri2601:00+10sw23670 0.0 102878
04:00+9wsw237267 0.0 1028103
07:00+7w378545 0.0 1028218
10:00+7wnw3490100 0.3 1029257
13:00+7nnw4893100 1.4 1029452
16:00+6nw4683100 1.8 1029717
19:00+5w4980100 2.2 1031665
22:00+4wnw39847 0.1 1032385
27 february, sat
sat2701:00+4wnw4108646 0.2 1033458
04:00+2wnw510908 0.0 1033435
07:00+1wnw5109221 0.0 1034447
10:00+2wnw5891100 0.0 1035585
13:00+3wnw4687100 0.1 1036533
16:00+3nw3584100 0.0 1035522
19:00+2nw369082 0.1 1036384
22:00+3w2380100 0.1 1037257
28 february, sun
sun2801:00+3w2378100 0.1 1037252
04:00+1sw238245 0.0 103691
07:00+1sw118023 0.0 103622
10:00+4wsw126383 0.0 1036318
13:00+6nnw116492 0.0 1036556
16:00+5n2283100 0.1 1035360
19:00+4nnw0188100 0.2 1035138
22:00+3n1190100 0.1 103683
1 march, mon
mon101:00+3e1191100 0.1 1036131
04:00+3se1193100 0.0 103622
07:00+1ene119576 0.0 103622
10:00+5e237612 0.0 1036437
13:00+8e34557 0.0 1036866
16:00+9ese34500 0.0 1034919
19:00+6se22660 0.0 103447
22:00+4se22710 0.0 103564